GW3133 Weather Reports


Display with metric or nautical units.
time (UTC)temp
F
wind
direction
speed
MPH
gust
MPH
rain 1hr
in
rain 24hr
in
rain mn
in
humidity
%
barometer
mb
20260507055225 59 33 4.0 9.0 0.00 0.00 0.00 94 1010.7
20260507054325 60 42 5.0 12.0 0.00 0.00 0.00 93 1011.0
20260507053425 61 26 7.0 14.0 0.00 0.00 0.00 92 1011.2
20260507052525 62 23 3.0 12.0 0.00 0.00 0.00 91 1011.4
20260507051625 62 39 1.0 4.0 0.00 0.00 0.00 91 1011.3
20260507050724 63 6 2.0 6.0 0.00 0.00 0.00 89 1011.4
20260507045824 64 352 2.0 6.0 0.00 0.00 0.00 86 1011.5
20260507044925 64 358 1.0 4.0 0.00 0.00 0.00 86 1011.3
20260507044024 65 38 2.0 7.0 0.00 0.00 0.00 87 1011.1
20260507043124 65 17 2.0 7.0 0.00 0.00 0.00 86 1010.9
20260507042225 65 29 5.0 11.0 0.00 0.00 0.00 85 1010.9
20260507041325 66 15 3.0 9.0 0.00 0.00 0.00 89 1010.6
20260507040424 66 298 1.0 5.0 0.00 0.00 0.00 90 1010.6
20260507035524 66 300 2.0 8.0 0.00 0.00 0.00 89 1010.5
20260507034624 67 299 0.0 8.0 0.00 0.00 0.00 88 1010.6
20260507032824 67 0 0.0 0.0 0.00 0.00 0.00 89 1010.1
20260507031924 67 0 0.0 0.0 0.00 0.00 0.00 89 1010.0
20260507031024 67 255 0.0 2.0 0.00 0.00 0.00 89 1010.1
20260507025224 66 258 2.0 4.0 0.00 0.00 0.00 90 1010.0
20260507024324 66 250 3.0 7.0 0.00 0.00 0.00 90 1010.0
20260507023424 66 246 3.0 7.0 0.00 0.00 0.00 91 1010.1
20260507022524 66 274 1.0 2.0 0.00 0.00 0.00 91 1010.4
20260507021624 66 273 2.0 4.0 0.00 0.00 0.00 91 1010.2
20260507020724 66 274 2.0 4.0 0.00 0.00 0.00 91 1010.3
20260507015824 66 0 0.0 0.0 0.00 0.00 0.00 91 1010.3
20260507014924 66 0 0.0 0.0 0.00 0.00 0.00 90 1010.4
20260507014024 66 278 0.0 1.0 0.00 0.00 0.00 91 1010.6
20260507013124 65 278 0.0 1.0 0.00 0.00 0.00 92 1010.8
20260507011324 64 278 0.0 1.0 0.00 0.00 0.00 93 1010.5
20260507010424 65 0 0.0 0.0 0.00 0.00 0.00 91 1010.4
20260507005524 65 0 0.0 0.0 0.00 0.00 0.00 91 1010.3
20260507004624 65 0 0.0 0.0 0.00 0.00 0.00 90 1010.4
20260507003724 66 278 0.0 1.0 0.00 0.00 0.00 89 1010.2
20260507001924 67 278 0.0 1.0 0.00 0.00 0.00 87 1010.3
20260507001024 67 278 0.0 1.0 0.00 0.00 0.00 87 1010.1
20260507000124 67 277 0.0 2.0 0.00 0.00 0.00 86 1010.2
20260506234324 68 277 0.0 3.0 0.00 0.00 0.00 85 1010.0
20260506233423 68 277 1.0 3.0 0.00 0.00 0.00 85 1009.9
20260506232523 68 275 0.0 4.0 0.00 0.00 0.00 84 1009.9
20260506231624 68 268 1.0 3.0 0.00 0.00 0.00 84 1009.9
20260506230724 69 267 2.0 5.0 0.00 0.00 0.00 84 1009.8
20260506224924 69 268 3.0 6.0 0.00 0.00 0.00 83 1009.8
20260506224023 69 270 2.0 6.0 0.00 0.00 0.00 83 1009.8
20260506223123 69 264 2.0 7.0 0.00 0.00 0.00 83 1009.7
20260506222223 69 272 2.0 7.0 0.00 0.00 0.00 83 1009.7
20260506221323 69 265 3.0 7.0 0.00 0.00 0.00 82 1009.8
20260506220423 70 265 3.0 8.0 0.00 0.00 0.00 82 1009.8
20260506215523 70 265 3.0 8.0 0.00 0.00 0.00 81 1009.7
20260506214623 70 268 4.0 9.0 0.00 0.00 0.00 81 1009.6
20260506213723 70 270 4.0 9.0 0.00 0.00 0.00 82 1009.7
20260506212824 70 269 5.0 10.0 0.00 0.00 0.00 82 1009.6
20260506211923 69 267 5.0 11.0 0.00 0.00 0.00 82 1009.4
20260506211024 70 270 4.0 10.0 0.00 0.00 0.00 82 1009.4
20260506210124 69 269 5.0 15.0 0.00 0.00 0.00 82 1009.3
20260506204323 69 267 6.0 18.0 0.00 0.00 0.00 82 1009.2
20260506203423 69 270 6.0 11.0 0.00 0.00 0.00 82 1009.6
20260506202523 69 269 6.0 13.0 0.00 0.00 0.00 83 1009.4
20260506201624 69 268 6.0 19.0 0.00 0.00 0.00 83 1009.2
20260506200723 69 268 6.0 12.0 0.00 0.00 0.00 83 1009.1
20260506195824 68 268 6.0 16.0 0.00 0.00 0.00 84 1009.3
20260506194923 68 264 6.0 17.0 0.00 0.00 0.00 84 1009.5
20260506194023 68 261 6.0 17.0 0.00 0.00 0.00 84 1009.6
20260506193123 68 263 6.0 15.0 0.00 0.00 0.00 84 1009.6
20260506192223 68 264 6.0 15.0 0.00 0.00 0.00 84 1009.8
20260506191323 68 258 7.0 18.0 0.00 0.00 0.00 83 1009.9
20260506190424 68 263 6.0 18.0 0.00 0.00 0.00 83 1010.0
20260506185523 68 259 7.0 20.0 0.00 0.00 0.00 83 1009.9
20260506184623 68 265 5.0 20.0 0.00 0.00 0.00 83 1010.0
20260506183723 67 260 5.0 16.0 0.00 0.00 0.00 84 1010.1
20260506182823 67 262 8.0 17.0 0.00 0.00 0.00 84 1010.3
20260506181923 67 261 8.0 18.0 0.00 0.00 0.00 84 1010.4
20260506181023 67 259 9.0 19.0 0.00 0.00 0.00 84 1010.4
20260506180123 67 258 8.0 16.0 0.00 0.00 0.00 85 1010.6
20260506175223 66 262 7.0 19.0 0.00 0.00 0.00 85 1010.6
20260506174323 66 255 8.0 21.0 0.00 0.00 0.00 86 1010.7
20260506173423 66 255 7.0 19.0 0.00 0.00 0.00 86 1010.8
20260506172523 66 261 7.0 20.0 0.00 0.00 0.00 86 1010.8
20260506171623 66 257 9.0 23.0 0.00 0.00 0.00 86 1010.8
20260506170723 65 257 9.0 23.0 0.00 0.00 0.00 86 1010.8
20260506165823 65 257 9.0 21.0 0.00 0.00 0.00 86 1010.7
20260506164923 66 263 9.0 22.0 0.00 0.00 0.00 86 1010.8
20260506163123 65 257 9.0 21.0 0.00 0.00 0.00 88 1010.9
20260506162223 64 250 10.0 20.0 0.00 0.00 0.00 89 1010.9
20260506161323 64 251 10.0 28.0 0.00 0.00 0.00 88 1011.2
20260506160424 65 246 11.0 23.0 0.00 0.00 0.00 86 1011.2
20260506155523 64 244 10.0 22.0 0.00 0.00 0.00 87 1011.1
20260506154623 64 244 9.0 20.0 0.00 0.00 0.00 88 1011.7
20260506153724 63 244 7.0 16.0 0.00 0.00 0.00 90 1012.0
20260506152823 63 254 5.0 12.0 0.00 0.00 0.00 90 1012.2
20260506151923 63 256 5.0 11.0 0.00 0.00 0.00 90 1012.3
20260506151023 63 254 6.0 13.0 0.00 0.00 0.00 88 1012.3
20260506150123 64 261 6.0 12.0 0.00 0.00 0.00 87 1012.2
20260506145223 64 261 6.0 12.0 0.00 0.00 0.00 85 1012.4
20260506144323 65 256 5.0 11.0 0.00 0.00 0.00 84 1012.3
20260506141623 66 256 7.0 14.0 0.00 0.00 0.00 79 1012.3
20260506140723 66 256 7.0 15.0 0.00 0.00 0.00 78 1012.4
20260506135823 67 256 6.0 18.0 0.00 0.00 0.00 77 1012.4
20260506134923 67 256 7.0 15.0 0.00 0.00 0.00 77 1012.3
20260506134023 67 252 7.0 17.0 0.00 0.00 0.00 76 1012.3
20260506132223 66 240 10.0 25.0 0.00 0.00 0.00 76 1012.1
20260506131323 67 251 9.0 25.0 0.00 0.00 0.00 76 1012.1
20260506125523 66 257 7.0 15.0 0.00 0.00 0.00 77 1012.1
20260506124622 66 249 9.0 19.0 0.00 0.00 0.00 77 1012.3
20260506123722 66 248 10.0 22.0 0.00 0.00 0.00 77 1012.1
20260506122823 66 247 11.0 26.0 0.00 0.00 0.00 76 1012.4
20260506121922 66 243 13.0 26.0 0.00 0.00 0.00 76 1012.3
20260506121022 66 252 10.0 23.0 0.00 0.00 0.00 77 1012.4
20260506115223 66 254 8.0 21.0 0.00 0.00 0.00 77 1012.2
20260506113423 66 246 9.0 18.0 0.00 0.00 0.00 78 1012.0
20260506112523 65 241 9.0 16.0 0.00 0.00 0.00 79 1012.0
20260506111622 65 241 9.0 22.0 0.00 0.00 0.00 79 1011.8
20260506110722 65 241 9.0 21.0 0.00 0.00 0.00 80 1011.8
20260506105822 65 234 11.0 20.0 0.00 0.00 0.00 80 1011.6
20260506104922 65 241 10.0 20.0 0.00 0.00 0.00 80 1011.7
20260506104022 65 242 11.0 21.0 0.00 0.00 0.00 80 1011.8
20260506101322 65 240 10.0 23.0 0.00 0.00 0.00 81 1011.6
20260506100422 65 248 10.0 20.0 0.00 0.00 0.00 81 1011.8
20260506095522 65 253 9.0 20.0 0.00 0.00 0.00 81 1011.9
20260506094622 65 252 10.0 22.0 0.00 0.00 0.00 81 1011.8
20260506092822 65 251 11.0 25.0 0.00 0.00 0.00 81 1011.8
20260506091922 65 249 12.0 26.0 0.00 0.00 0.00 81 1012.0
20260506091022 65 251 10.0 23.0 0.00 0.00 0.00 81 1012.0
20260506090122 66 250 9.0 22.0 0.00 0.00 0.00 81 1011.9
20260506084322 66 247 10.0 26.0 0.00 0.00 0.00 81 1012.0
20260506083422 66 248 10.0 21.0 0.00 0.00 0.00 80 1011.9
20260506082522 66 245 11.0 22.0 0.00 0.00 0.00 80 1011.8
20260506080722 66 243 12.0 26.0 0.00 0.00 0.00 80 1011.9
20260506072222 67 245 12.0 25.0 0.00 0.00 0.00 79 1012.3
20260506070422 67 249 11.0 22.0 0.00 0.00 0.00 79 1012.4
20260506061021 68 248 11.0 25.0 0.00 0.00 0.00 77 1012.2